DW8065 Weather Reports


Display with metric or nautical units.
time (UTC)temp
F
wind
direction
speed
MPH
gust
MPH
rain 1hr
in
rain 24hr
in
rain mn
in
humidity
%
barometer
mb
20260903161546 64 192 0.0 0.0 0.00 0.04 0.04 89 1013.3
20260903160044 64 255 0.0 1.0 0.00 0.04 0.04 91 1013.6
20260903154601 63 21 0.0 0.0 0.00 0.04 0.04 91 1013.6
20260903153039 63 27 0.0 0.0 0.00 0.04 0.04 91 1013.9
20260903151537 63 34 0.0 0.0 0.00 0.04 0.04 92 1014.2
20260903150038 62 34 0.0 3.0 0.00 0.04 0.04 92 1014.2
20260903144537 63 42 0.0 0.0 0.00 0.04 0.04 91 1014.2
20260903143044 63 42 0.0 0.0 0.00 0.04 0.04 91 1014.2
20260903141546 63 42 0.0 0.0 0.00 0.04 0.04 90 1014.5
20260903140038 63 276 0.0 0.0 0.00 0.04 0.04 90 1014.4
20260903134534 63 320 0.0 0.0 0.00 0.04 0.04 90 1014.3
20260903133035 63 319 0.0 0.0 0.00 0.04 0.04 90 1014.2
20260903131541 63 301 0.0 1.0 0.00 0.04 0.04 91 1014.2
20260903130036 62 144 0.0 3.0 0.00 0.04 0.04 91 1014.3
20260903124536 62 328 0.0 3.0 0.00 0.04 0.04 92 1014.4
20260903123034 61 283 0.0 1.0 0.00 0.04 0.04 92 1014.5
20260903121530 61 190 0.0 0.0 0.00 0.00 0.04 92 1014.7
20260903120030 61 259 0.0 2.0 0.00 0.04 0.04 92 1014.8
20260903114529 60 230 0.0 0.0 0.00 0.04 0.04 92 1014.8
20260903113030 60 230 0.0 0.0 0.00 0.04 0.04 92 1014.9
20260903111537 60 229 0.0 0.0 0.00 0.04 0.04 92 1014.8
20260903110026 61 282 0.0 2.0 0.00 0.04 0.04 92 1014.8
20260903104527 60 300 0.0 2.0 0.00 0.04 0.04 92 1014.7
20260903103030 60 288 0.0 3.0 0.00 0.04 0.04 92 1014.8
20260903101536 60 274 0.0 1.0 0.00 0.04 0.04 92 1014.5
20260903100024 60 298 0.0 0.0 0.00 0.00 0.04 92 1014.5
20260903094522 60 239 0.0 0.0 0.00 0.04 0.04 92 1014.8
20260903093021 60 294 0.0 0.0 0.00 0.04 0.04 92 1014.7
20260903091521 60 237 0.0 2.0 0.00 0.04 0.04 92 1014.7
20260903090020 60 282 0.0 2.0 0.00 0.04 0.04 92 1014.8
20260903084518 60 288 0.0 2.0 0.00 0.04 0.04 92 1014.9
20260903083027 60 247 0.0 1.0 0.00 0.04 0.04 92 1015.2
20260903081527 60 280 0.0 2.0 0.00 0.04 0.04 92 1015.3
20260903080013 61 295 0.0 1.0 0.00 0.04 0.04 92 1015.3
20260903074512 61 307 0.0 3.0 0.00 0.04 0.04 92 1015.6
20260903073014 61 316 0.0 0.0 0.00 0.04 0.04 92 1015.5
20260903071510 61 316 0.0 1.0 0.02 0.04 0.04 91 1015.6
20260903070009 61 280 0.0 2.0 0.04 0.04 0.04 91 1015.7
20260903064508 61 294 0.0 2.0 0.04 0.04 0.04 91 1015.6
20260903063005 61 288 0.0 1.0 0.04 0.04 0.04 90 1015.7
20260903061503 62 171 0.0 1.0 0.02 0.02 0.02 89 1015.7
20260903060116 62 153 0.0 0.0 0.00 0.00 0.00 88 1015.8
20260903054558 63 272 0.0 3.0 0.00 0.00 0.00 87 1016.2
20260903053055 63 300 0.0 4.0 0.00 0.00 0.00 86 1016.5
20260903051554 63 190 0.0 3.0 0.00 0.00 0.00 86 1016.8
20260903050118 63 283 0.0 3.0 0.00 0.00 0.00 86 1016.7
20260903044551 63 182 0.0 0.0 0.00 0.01 0.00 85 1017.0
20260903043049 63 178 0.0 1.0 0.00 0.01 0.00 85 1016.9
20260903041553 63 218 0.0 1.0 0.00 0.01 0.00 86 1016.7
20260903040055 63 263 0.0 3.0 0.00 0.01 0.00 85 1016.9
20260903034546 63 339 0.0 1.0 0.00 0.01 0.01 85 1017.2
20260903033044 63 297 0.0 4.0 0.00 0.01 0.01 85 1017.3
20260903031543 63 284 0.0 1.0 0.00 0.01 0.01 85 1017.5
20260903030042 64 174 0.0 1.0 0.00 0.01 0.01 85 1017.8
20260903024541 64 300 0.0 2.0 0.00 0.01 0.01 85 1018.3
20260903023043 64 250 0.0 2.0 0.00 0.01 0.01 85 1018.0
20260903021540 64 246 0.0 2.0 0.00 0.01 0.01 85 1018.0
20260903020044 64 146 0.0 2.0 0.00 0.01 0.01 85 1018.3
20260903014548 64 120 0.0 2.0 0.00 0.01 0.01 85 1018.3
20260903013038 64 164 0.0 5.0 0.00 0.01 0.01 85 1018.6
20260903011555 64 305 0.0 2.0 0.00 0.01 0.01 84 1018.5
20260903010037 64 280 0.0 4.0 0.00 0.01 0.01 84 1018.3
20260903004539 65 79 0.0 2.0 0.00 0.01 0.01 85 1018.3
20260903003035 65 285 0.0 1.0 0.00 0.01 0.01 85 1018.0
20260903001635 65 68 0.0 3.0 0.00 0.01 0.01 85 1018.2
20260903000034 65 294 0.0 2.0 0.00 0.01 0.01 85 1017.8
20260902234539 65 18 0.0 7.0 0.00 0.01 0.01 85 1017.8
20260902233031 65 163 0.0 2.0 0.00 0.01 0.01 85 1017.9
20260902231538 65 262 0.0 1.0 0.00 0.01 0.01 85 1018.4
20260902230030 65 27 0.0 1.0 0.00 0.01 0.01 84 1019.2
20260902224523 65 290 0.0 1.0 0.00 0.01 0.01 84 1019.5
20260902223022 66 290 0.0 1.0 0.00 0.01 0.01 83 1019.6
20260902221522 66 290 0.0 1.0 0.00 0.01 0.01 83 1019.8
20260902220021 66 308 0.0 1.0 0.00 0.01 0.01 84 1019.9
20260902214521 67 343 0.0 1.0 0.00 0.01 0.01 82 1019.5
20260902213019 67 304 0.0 3.0 0.00 0.01 0.01 82 1019.5
20260902211526 67 309 0.0 1.0 0.00 0.01 0.01 80 1019.6
20260902210019 67 293 0.0 1.0 0.00 0.01 0.01 80 1019.8
20260902204518 68 22 0.0 3.0 0.00 0.01 0.01 79 1020.0
20260902203017 68 183 0.0 5.0 0.00 0.01 0.01 77 1019.9
20260902201518 69 158 0.0 3.0 0.00 0.01 0.01 77 1019.9
20260902200016 69 338 0.0 4.0 0.00 0.01 0.01 76 1019.9
20260902194517 69 127 0.0 3.0 0.00 0.01 0.01 75 1020.1
20260902193015 70 139 1.0 5.0 0.00 0.01 0.01 73 1020.1
20260902191512 70 229 0.0 4.0 0.00 0.01 0.01 75 1020.1
20260902190009 68 136 0.0 1.0 0.00 0.01 0.01 79 1020.5
20260902184508 67 243 0.0 2.0 0.00 0.01 0.01 79 1020.9
20260902183013 68 152 0.0 0.0 0.00 0.01 0.01 78 1021.2
20260902181507 67 217 0.0 4.0 0.00 0.01 0.01 78 1020.8
20260902180010 67 158 0.0 2.0 0.00 0.01 0.01 78 1020.8
20260902174507 67 247 1.0 4.0 0.00 0.01 0.01 77 1020.6
20260902173004 67 82 0.0 2.0 0.00 0.01 0.01 77 1020.9
20260902171505 67 250 0.0 2.0 0.00 0.01 0.01 77 1020.9
20260902170004 67 117 0.0 0.0 0.00 0.00 0.01 77 1021.1
20260902164504 68 121 0.0 1.0 0.00 0.01 0.01 76 1021.3
20260902163003 68 359 0.0 3.0 0.00 0.01 0.01 76 1021.0